<?xml version="1.0"?>
<gpx xmlns="http://www.topografix.com/GPX/1/1" xmlns:xsi="http://www.w3.org/2001/XMLSchema-instance" version="1.1" creator="GPX RubyGem 1.0.0 -- http://dougfales.github.io/gpx/" xsi:schemaLocation="http://www.topografix.com/GPX/1/1 http://www.topografix.com/GPX/1/1/gpx.xsd">
  <metadata>
    <name/>
    <time>2026-05-08T19:52:36+00:00</time>
    <bound minlat="90.0" minlon="180.0" maxlat="-90.0" maxlon="-180.0"/>
  </metadata>
  <trk>
    <name/>
    <trkseg>
      <trkpt lat="34.749701" lon="137.979563">
        <time>1970-01-01T00:00:00+00:00</time>
        <ele>70.0</ele>
      </trkpt>
      <trkpt lat="34.74972" lon="137.979124">
        <time>1970-01-01T00:00:00+00:00</time>
        <ele>68.0</ele>
      </trkpt>
      <trkpt lat="34.74951" lon="137.978715">
        <time>1970-01-01T00:00:00+00:00</time>
        <ele>68.0</ele>
      </trkpt>
      <trkpt lat="34.749365" lon="137.978132">
        <time>1970-01-01T00:00:00+00:00</time>
        <ele>69.0</ele>
      </trkpt>
      <trkpt lat="34.749448" lon="137.97812">
        <time>1970-01-01T00:00:00+00:00</time>
        <ele>68.0</ele>
      </trkpt>
      <trkpt lat="34.749515" lon="137.977576">
        <time>1970-01-01T00:00:00+00:00</time>
        <ele>68.0</ele>
      </trkpt>
      <trkpt lat="34.749613" lon="137.976834">
        <time>1970-01-01T00:00:00+00:00</time>
        <ele>72.0</ele>
      </trkpt>
      <trkpt lat="34.749574" lon="137.976858">
        <time>1970-01-01T00:00:00+00:00</time>
        <ele>72.0</ele>
      </trkpt>
      <trkpt lat="34.749437" lon="137.976875">
        <time>1970-01-01T00:00:00+00:00</time>
        <ele>76.0</ele>
      </trkpt>
      <trkpt lat="34.749209" lon="137.976911">
        <time>1970-01-01T00:00:00+00:00</time>
        <ele>79.0</ele>
      </trkpt>
      <trkpt lat="34.748749" lon="137.976847">
        <time>1970-01-01T00:00:00+00:00</time>
        <ele>82.0</ele>
      </trkpt>
      <trkpt lat="34.748697" lon="137.976273">
        <time>1970-01-01T00:00:00+00:00</time>
        <ele>103.0</ele>
      </trkpt>
      <trkpt lat="34.748685" lon="137.976186">
        <time>1970-01-01T00:00:00+00:00</time>
        <ele>106.0</ele>
      </trkpt>
      <trkpt lat="34.748909" lon="137.976207">
        <time>1970-01-01T00:00:00+00:00</time>
        <ele>103.0</ele>
      </trkpt>
      <trkpt lat="34.748963" lon="137.976184">
        <time>1970-01-01T00:00:00+00:00</time>
        <ele>102.0</ele>
      </trkpt>
      <trkpt lat="34.748665" lon="137.975495">
        <time>1970-01-01T00:00:00+00:00</time>
        <ele>113.0</ele>
      </trkpt>
      <trkpt lat="34.748544" lon="137.975337">
        <time>1970-01-01T00:00:00+00:00</time>
        <ele>113.0</ele>
      </trkpt>
      <trkpt lat="34.7484" lon="137.975297">
        <time>1970-01-01T00:00:00+00:00</time>
        <ele>113.0</ele>
      </trkpt>
      <trkpt lat="34.748195" lon="137.975368">
        <time>1970-01-01T00:00:00+00:00</time>
        <ele>115.0</ele>
      </trkpt>
      <trkpt lat="34.748195" lon="137.975368">
        <time>1970-01-01T00:00:00+00:00</time>
        <ele>115.0</ele>
      </trkpt>
      <trkpt lat="34.7484" lon="137.975297">
        <time>1970-01-01T00:00:00+00:00</time>
        <ele>113.0</ele>
      </trkpt>
      <trkpt lat="34.748544" lon="137.975337">
        <time>1970-01-01T00:00:00+00:00</time>
        <ele>113.0</ele>
      </trkpt>
      <trkpt lat="34.748665" lon="137.975495">
        <time>1970-01-01T00:00:00+00:00</time>
        <ele>113.0</ele>
      </trkpt>
      <trkpt lat="34.748963" lon="137.976184">
        <time>1970-01-01T00:00:00+00:00</time>
        <ele>102.0</ele>
      </trkpt>
      <trkpt lat="34.748909" lon="137.976207">
        <time>1970-01-01T00:00:00+00:00</time>
        <ele>103.0</ele>
      </trkpt>
      <trkpt lat="34.748685" lon="137.976186">
        <time>1970-01-01T00:00:00+00:00</time>
        <ele>106.0</ele>
      </trkpt>
      <trkpt lat="34.748697" lon="137.976273">
        <time>1970-01-01T00:00:00+00:00</time>
        <ele>103.0</ele>
      </trkpt>
      <trkpt lat="34.748749" lon="137.976847">
        <time>1970-01-01T00:00:00+00:00</time>
        <ele>82.0</ele>
      </trkpt>
      <trkpt lat="34.749209" lon="137.976911">
        <time>1970-01-01T00:00:00+00:00</time>
        <ele>79.0</ele>
      </trkpt>
      <trkpt lat="34.749437" lon="137.976875">
        <time>1970-01-01T00:00:00+00:00</time>
        <ele>76.0</ele>
      </trkpt>
      <trkpt lat="34.749574" lon="137.976858">
        <time>1970-01-01T00:00:00+00:00</time>
        <ele>72.0</ele>
      </trkpt>
      <trkpt lat="34.749613" lon="137.976834">
        <time>1970-01-01T00:00:00+00:00</time>
        <ele>72.0</ele>
      </trkpt>
      <trkpt lat="34.749515" lon="137.977576">
        <time>1970-01-01T00:00:00+00:00</time>
        <ele>68.0</ele>
      </trkpt>
      <trkpt lat="34.749448" lon="137.97812">
        <time>1970-01-01T00:00:00+00:00</time>
        <ele>68.0</ele>
      </trkpt>
      <trkpt lat="34.749365" lon="137.978132">
        <time>1970-01-01T00:00:00+00:00</time>
        <ele>69.0</ele>
      </trkpt>
      <trkpt lat="34.74951" lon="137.978715">
        <time>1970-01-01T00:00:00+00:00</time>
        <ele>68.0</ele>
      </trkpt>
      <trkpt lat="34.74972" lon="137.979124">
        <time>1970-01-01T00:00:00+00:00</time>
        <ele>68.0</ele>
      </trkpt>
      <trkpt lat="34.749701" lon="137.979563">
        <time>1970-01-01T00:00:00+00:00</time>
        <ele>70.0</ele>
      </trkpt>
    </trkseg>
  </trk>
</gpx>
